University Park, PA

4:07 AM EDT on July 30, 2016 (GMT -0400)
University Park

Weather History for KUNV - August, 2014

Change the Weather History Date:

Monday, August 11, 2014

  Actual Average Record
Temperature  
Mean Temperature 66 °F -  
Max Temperature 75 °F 81 °F 94 °F (1988)
Min Temperature 58 °F 60 °F 45 °F (1972)
Cooling Degree Days 2    
Growing Degree Days 16 (Base 50)    
Moisture  
Dew Point 59 °F    
Average Humidity 78    
Maximum Humidity 97    
Minimum Humidity 50    
Precipitation  
Precipitation 0.00 in - - ()
Sea Level Pressure  
Sea Level Pressure 30.11 in    
Wind  
Wind Speed 1 mph (South)    
Max Wind Speed 14 mph    
Max Gust Speed 21 mph    
Visibility 10 miles    
Events      
Averages and records for this station are not official NWS values.
T = Trace of Precipitation, MM = Missing Value Source: NWS Daily Summary

Daily Weather History Graph

Daily Weather History Graph

Search for Another Location

Airport or City:

Trip Planner

Search our weather history database for the weather conditions in past years. The results will help you decide how hot, cold, wet, or windy it might be!

Date:

Astronomy

Aug. 11, 2014 Rise Set
Actual Time 6:17 AM EDT 8:14 PM EDT
Civil Twilight 5:47 AM EDT 8:44 PM EDT
Nautical Twilight 5:11 AM EDT 9:20 PM EDT
Astronomical Twilight 4:31 AM EDT 10:00 PM EDT
Moon 8:40 PM EDT (8/11) 7:20 AM EDT (8/11)
Length of Visible Light 14h 57m
Length of Day
13h 57m
Full, 99% of the Moon is Illuminated
Aug 11
Full
Aug 17
Last Quarter
Aug 25
New
Sep 2
First Quarter
Sep 8
Full

Hourly Weather History & Observations

Time (EDT) Temp. Dew Point Humidity Pressure Visibility Wind Dir Wind Speed Gust Speed Precip Events Conditions
12:15 AM 67.8 °F 59.0 °F 73% 30.13 in 10.0 mi Calm Calm - N/A   Scattered Clouds
12:35 AM 66.7 °F 58.6 °F 75% 30.13 in 10.0 mi Calm Calm - N/A   Clear
12:55 AM 66.0 °F 58.6 °F 77% 30.14 in 10.0 mi Calm Calm - N/A   Scattered Clouds
1:15 AM 66.0 °F 58.1 °F 76% 30.13 in 10.0 mi Calm Calm - N/A   Scattered Clouds
1:35 AM 64.9 °F 58.1 °F 78% 30.13 in 10.0 mi Calm Calm - N/A   Scattered Clouds
1:55 AM 64.8 °F 58.3 °F 79% 30.13 in 10.0 mi Calm Calm - N/A   Scattered Clouds
2:15 AM 65.8 °F 58.3 °F 77% 30.13 in 10.0 mi Calm Calm - N/A   Clear
2:35 AM 65.1 °F 58.3 °F 78% 30.13 in 10.0 mi Calm Calm - N/A   Clear
2:55 AM 64.6 °F 58.3 °F 80% 30.13 in 10.0 mi Calm Calm - N/A   Clear
3:15 AM 63.1 °F 58.8 °F 86% 30.13 in 10.0 mi West 3.5 mph - N/A   Clear
3:35 AM 65.3 °F 58.6 °F 79% 30.12 in 10.0 mi Calm Calm - N/A   Scattered Clouds
4:15 AM 62.6 °F 58.8 °F 87% 30.12 in 10.0 mi Calm Calm - N/A   Clear
4:35 AM 61.5 °F 58.6 °F 90% 30.12 in 10.0 mi Calm Calm - N/A   Scattered Clouds
4:55 AM 60.3 °F 58.5 °F 94% 30.12 in 10.0 mi Calm Calm - N/A   Scattered Clouds
5:15 AM 60.6 °F 58.5 °F 93% 30.12 in 10.0 mi Calm Calm - N/A   Scattered Clouds
5:35 AM 58.5 °F 57.6 °F 97% 30.12 in 7.0 mi Calm Calm - N/A   Clear
5:53 AM 59.0 °F 57.2 °F 94% 30.12 in 10.0 mi Calm Calm - N/A   Clear
6:53 AM 60.8 °F 57.2 °F 88% 30.12 in 8.0 mi Calm Calm - N/A   Clear
7:53 AM 64.4 °F 60.8 °F 88% 30.12 in 8.0 mi Calm Calm - N/A   Clear
8:53 AM 66.2 °F 60.8 °F 83% 30.13 in 8.0 mi Calm Calm - N/A   Overcast
9:53 AM 68.0 °F 62.6 °F 83% 30.12 in 10.0 mi Calm Calm - N/A   Overcast
10:53 AM 73.4 °F 62.6 °F 69% 30.12 in 10.0 mi Calm Calm - N/A   Partly Cloudy
11:53 AM 75.2 °F 57.2 °F 53% 30.12 in 10.0 mi SE 10.4 mph 17.3 mph N/A   Scattered Clouds
12:53 PM 75.2 °F 57.2 °F 53% 30.11 in 10.0 mi SE 8.1 mph - N/A   Scattered Clouds
1:53 PM 75.2 °F 57.2 °F 53% 30.11 in 10.0 mi SSE 8.1 mph 17.3 mph N/A   Scattered Clouds
2:53 PM 73.4 °F 53.6 °F 50% 30.10 in 10.0 mi SSE 13.8 mph 20.7 mph N/A   Scattered Clouds
7:53 PM 69.8 °F 59.0 °F 68% 30.03 in 10.0 mi SSE 5.8 mph - N/A   Mostly Cloudy
8:53 PM 69.8 °F 59.0 °F 68% 30.03 in 10.0 mi SSW 9.2 mph - N/A   Overcast
9:55 PM 66.0 °F 59.7 °F 80% 30.04 in 10.0 mi South 6.9 mph - N/A   Overcast